RG400 LEBL-LEMG

Flight info

Callsign RG400
Flight time 1h 14m
Altitude 31000
Route LOTOS DCT TORDU DCT DIKUT DCT SOPET DCT VLC DCT SERRA DCT ASTRO DCT POBOS DCT XEBAR DCT YES DCT MAMIS DCT BAZAS DCT VIBAS
Aircraft MD82/M-SDFGIJ1RWY/S

Departure

Time 2026-05-05 16:09
Airport Josep Tarradellas Barcelona-El Prat Airport (LEBL)

Arrival

Time 2026-05-05 17:24
Airport Málaga-Costa del Sol Airport (LEMG)
Time Latitude Longitude Altitude Speed Heading
2026-05-05 15:38 41.28643 2.07529 19 ft 0 kts 336°
2026-05-05 15:56 41.28641 2.07530 18 ft 1 kts 336°
2026-05-05 15:56 41.28627 2.07538 18 ft 2 kts 342°
2026-05-05 15:57 41.28613 2.07542 18 ft 2 kts 356°
2026-05-05 15:57 41.28599 2.07542 18 ft 2 kts
2026-05-05 15:57 41.28583 2.07538 18 ft 2 kts 18°
2026-05-05 15:57 41.28570 2.07530 18 ft 2 kts 30°
2026-05-05 15:58 41.28558 2.07519 18 ft 2 kts 41°
2026-05-05 15:58 41.28547 2.07505 18 ft 2 kts 52°
2026-05-05 15:58 41.28542 2.07496 18 ft 0 kts 58°
2026-05-05 15:58 41.28539 2.07489 18 ft 0 kts 60°
2026-05-05 16:00 41.28540 2.07490 18 ft 0 kts 60°
2026-05-05 16:00 41.28542 2.07497 18 ft 1 kts 79°
2026-05-05 16:00 41.28537 2.07507 18 ft 0 kts 142°
2026-05-05 16:00 41.28522 2.07514 18 ft 3 kts 163°
2026-05-05 16:01 41.28492 2.07528 18 ft 4 kts 156°
2026-05-05 16:01 41.28469 2.07567 18 ft 7 kts 95°
2026-05-05 16:01 41.28484 2.07626 18 ft 8 kts 64°
2026-05-05 16:02 41.28507 2.07688 18 ft 9 kts 65°
2026-05-05 16:02 41.28537 2.07779 18 ft 11 kts 66°
2026-05-05 16:02 41.28572 2.07883 18 ft 13 kts 66°
2026-05-05 16:02 41.28611 2.08000 18 ft 14 kts 65°
2026-05-05 16:03 41.28648 2.08107 18 ft 11 kts 65°
2026-05-05 16:03 41.28676 2.08187 18 ft 8 kts 65°
2026-05-05 16:03 41.28702 2.08265 18 ft 10 kts 66°
2026-05-05 16:03 41.28734 2.08358 18 ft 11 kts 65°
2026-05-05 16:04 41.28770 2.08464 18 ft 13 kts 65°
2026-05-05 16:04 41.28811 2.08582 18 ft 14 kts 65°
2026-05-05 16:04 41.28849 2.08693 18 ft 11 kts 65°
2026-05-05 16:04 41.28878 2.08774 18 ft 7 kts 65°
2026-05-05 16:05 41.28896 2.08827 18 ft 5 kts 65°
2026-05-05 16:05 41.28908 2.08865 18 ft 3 kts 65°
2026-05-05 16:05 41.28917 2.08891 18 ft 3 kts 66°
2026-05-05 16:05 41.28938 2.08953 18 ft 12 kts 66°
2026-05-05 16:06 41.28986 2.09095 18 ft 18 kts 66°
2026-05-05 16:06 41.29032 2.09234 18 ft 14 kts 66°
2026-05-05 16:06 41.29069 2.09341 18 ft 11 kts 64°
2026-05-05 16:06 41.29103 2.09436 18 ft 12 kts 65°
2026-05-05 16:07 41.29143 2.09556 18 ft 15 kts 65°
2026-05-05 16:07 41.29189 2.09688 18 ft 16 kts 65°
2026-05-05 16:07 41.29240 2.09835 18 ft 18 kts 64°
2026-05-05 16:07 41.29277 2.09987 18 ft 15 kts 93°
2026-05-05 16:08 41.29248 2.10111 18 ft 12 kts 111°
2026-05-05 16:08 41.29241 2.10206 18 ft 8 kts 75°
2026-05-05 16:08 41.29244 2.10269 18 ft 5 kts 115°
2026-05-05 16:08 41.29207 2.10280 18 ft 6 kts 223°
2026-05-05 16:09 41.29170 2.10186 18 ft 37 kts 244°
2026-05-05 16:09 41.28915 2.09437 19 ft 135 kts 245°
2026-05-05 16:09 41.28431 2.08051 535 ft 178 kts 242°
2026-05-05 16:09 41.27854 2.06772 1897 ft 169 kts 229°
2026-05-05 16:10 41.26861 2.05841 2618 ft 201 kts 204°
2026-05-05 16:10 41.25242 2.05472 2960 ft 263 kts 180°
2026-05-05 16:10 41.23588 2.05722 5041 ft 244 kts 175°
2026-05-05 16:10 41.22014 2.05987 6754 ft 233 kts 173°
2026-05-05 16:11 41.20530 2.06303 8393 ft 216 kts 180°
2026-05-05 16:11 41.16358 2.05150 10465 ft 228 kts 210°
2026-05-05 16:12 41.14935 2.04080 10791 ft 243 kts 211°
2026-05-05 16:12 41.11866 2.01862 11787 ft 260 kts 210°
2026-05-05 16:13 41.07188 1.98082 13504 ft 268 kts 229°
2026-05-05 16:13 41.06069 1.96006 13617 ft 288 kts 247°
2026-05-05 16:13 41.05542 1.93377 13716 ft 307 kts 264°
2026-05-05 16:14 41.04595 1.87569 14279 ft 337 kts 253°
2026-05-05 16:14 41.02943 1.81644 15274 ft 349 kts 250°
2026-05-05 16:15 41.01162 1.75582 16346 ft 357 kts 250°
2026-05-05 16:15 40.99334 1.69436 17374 ft 364 kts 250°
2026-05-05 16:16 40.97463 1.63156 18347 ft 370 kts 250°
2026-05-05 16:16 40.95566 1.56765 19270 ft 375 kts 251°
2026-05-05 16:17 40.93980 1.50208 20153 ft 379 kts 254°
2026-05-05 16:17 40.93195 1.46846 20579 ft 382 kts 254°
2026-05-05 16:18 40.91608 1.40123 21398 ft 386 kts 254°
2026-05-05 16:18 40.90804 1.36722 21786 ft 389 kts 254°
2026-05-05 16:18 40.89186 1.29881 22552 ft 393 kts 253°
2026-05-05 16:19 40.88374 1.26445 22912 ft 395 kts 253°
2026-05-05 16:19 40.87557 1.22979 23271 ft 397 kts 253°
2026-05-05 16:19 40.85885 1.15975 23951 ft 402 kts 250°
2026-05-05 16:20 40.82390 1.10286 24575 ft 411 kts 214°
2026-05-05 16:20 40.77000 1.07848 25188 ft 419 kts 194°
2026-05-05 16:21 40.71316 1.06041 25793 ft 422 kts 196°
2026-05-05 16:22 40.62808 1.03079 26626 ft 426 kts 197°
2026-05-05 16:22 40.57079 1.00994 27153 ft 428 kts 202°
2026-05-05 16:23 40.52190 0.96762 27626 ft 426 kts 227°
2026-05-05 16:23 40.50273 0.93837 27860 ft 427 kts 230°
2026-05-05 16:23 40.46314 0.88018 28301 ft 429 kts 229°
2026-05-05 16:24 40.44297 0.85127 28518 ft 431 kts 228°
2026-05-05 16:24 40.42254 0.82213 28717 ft 432 kts 228°
2026-05-05 16:24 40.38202 0.76455 29121 ft 434 kts 228°
2026-05-05 16:25 40.36167 0.73564 29299 ft 436 kts 228°
2026-05-05 16:25 40.32052 0.67716 29712 ft 436 kts 228°
2026-05-05 16:25 40.29996 0.64794 29915 ft 436 kts 228°
2026-05-05 16:26 40.25894 0.58961 30355 ft 435 kts 228°
2026-05-05 16:26 40.21802 0.53205 30789 ft 434 kts 228°
2026-05-05 16:27 40.19763 0.50346 30982 ft 434 kts 228°
2026-05-05 16:27 40.17689 0.47440 31184 ft 433 kts 228°
2026-05-05 16:27 40.15642 0.44573 31388 ft 433 kts 228°
2026-05-05 16:27 40.13596 0.41706 31584 ft 432 kts 228°
2026-05-05 16:28 40.11557 0.38849 31776 ft 432 kts 228°
2026-05-05 16:28 40.09520 0.35992 31961 ft 431 kts 228°
2026-05-05 16:28 40.07485 0.33138 32141 ft 431 kts 227°
2026-05-05 16:28 40.05453 0.30289 32341 ft 430 kts 227°
2026-05-05 16:29 40.03429 0.27447 32526 ft 429 kts 227°
2026-05-05 16:29 40.01394 0.24591 32702 ft 429 kts 227°
2026-05-05 16:29 39.99374 0.21762 32858 ft 428 kts 227°
2026-05-05 16:29 39.97357 0.18955 32901 ft 423 kts 227°
2026-05-05 16:30 39.93373 0.13418 32919 ft 423 kts 227°
2026-05-05 16:30 39.89327 0.07795 32922 ft 425 kts 227°
2026-05-05 16:31 39.85271 0.02154 32923 ft 426 kts 227°
2026-05-05 16:31 39.81208 -0.03475 32916 ft 426 kts 227°
2026-05-05 16:32 39.77135 -0.09068 32905 ft 427 kts 227°
2026-05-05 16:32 39.73076 -0.14631 32899 ft 427 kts 227°
2026-05-05 16:33 39.68988 -0.20238 32894 ft 427 kts 227°
2026-05-05 16:33 39.64947 -0.25782 32894 ft 427 kts 227°
2026-05-05 16:34 39.60858 -0.31395 32893 ft 427 kts 227°
2026-05-05 16:34 39.56789 -0.36986 32893 ft 427 kts 227°
2026-05-05 16:35 39.52746 -0.42543 32893 ft 427 kts 227°
2026-05-05 16:35 39.48694 -0.48197 32892 ft 427 kts 230°
2026-05-05 16:36 39.45057 -0.54225 32895 ft 427 kts 234°
2026-05-05 16:36 39.41514 -0.60308 32892 ft 427 kts 233°
2026-05-05 16:37 39.37915 -0.66435 32894 ft 427 kts 233°
2026-05-05 16:37 39.34341 -0.72512 32895 ft 427 kts 233°
2026-05-05 16:38 39.30765 -0.78595 32894 ft 427 kts 233°
2026-05-05 16:38 39.27185 -0.84690 32894 ft 427 kts 233°
2026-05-05 16:39 39.23608 -0.90732 32894 ft 427 kts 233°
2026-05-05 16:39 39.20001 -0.96786 32894 ft 427 kts 233°
2026-05-05 16:40 39.16381 -1.02863 32904 ft 427 kts 233°
2026-05-05 16:40 39.12774 -1.08921 32918 ft 427 kts 232°
2026-05-05 16:41 39.09172 -1.14975 32932 ft 427 kts 232°
2026-05-05 16:41 39.05568 -1.21038 32945 ft 427 kts 232°
2026-05-05 16:42 39.01967 -1.27099 32947 ft 427 kts 232°
2026-05-05 16:42 38.98351 -1.33103 32945 ft 425 kts 231°
2026-05-05 16:43 38.94743 -1.39072 32944 ft 427 kts 230°
2026-05-05 16:43 38.91091 -1.45112 32942 ft 429 kts 229°
2026-05-05 16:44 38.87450 -1.51136 32948 ft 431 kts 229°
2026-05-05 16:44 38.83753 -1.57252 32954 ft 434 kts 229°
2026-05-05 16:45 38.80075 -1.63349 32953 ft 437 kts 229°
2026-05-05 16:45 38.76347 -1.69533 32950 ft 439 kts 229°
2026-05-05 16:46 38.72633 -1.75703 32950 ft 440 kts 229°
2026-05-05 16:46 38.68863 -1.81880 32947 ft 440 kts 228°
2026-05-05 16:47 38.65107 -1.88014 32947 ft 438 kts 228°
2026-05-05 16:47 38.61368 -1.94125 32947 ft 437 kts 229°
2026-05-05 16:48 38.57641 -2.00223 32948 ft 437 kts 229°
2026-05-05 16:48 38.53893 -2.06360 32948 ft 437 kts 229°
2026-05-05 16:49 38.50150 -2.12455 32949 ft 438 kts 228°
2026-05-05 16:49 38.46392 -2.18541 32948 ft 437 kts 228°
2026-05-05 16:50 38.42651 -2.24607 32948 ft 437 kts 229°
2026-05-05 16:50 38.38925 -2.30657 32948 ft 438 kts 229°
2026-05-05 16:51 38.35070 -2.36698 32949 ft 436 kts 225°
2026-05-05 16:51 38.30933 -2.42218 32948 ft 435 kts 223°
2026-05-05 16:52 38.26744 -2.47777 32948 ft 435 kts 223°
2026-05-05 16:52 38.22567 -2.53335 32947 ft 435 kts 223°
2026-05-05 16:53 38.18409 -2.58874 32600 ft 438 kts 223°
2026-05-05 16:53 38.16322 -2.61655 32199 ft 438 kts 223°
2026-05-05 16:53 38.14219 -2.64459 31799 ft 436 kts 224°
2026-05-05 16:54 38.12134 -2.67239 31396 ft 434 kts 223°
2026-05-05 16:54 38.10069 -2.69994 30995 ft 435 kts 223°
2026-05-05 16:54 38.07993 -2.72766 30598 ft 433 kts 223°
2026-05-05 16:54 38.05927 -2.75524 30192 ft 431 kts 223°
2026-05-05 16:55 38.03883 -2.78253 29788 ft 429 kts 223°
2026-05-05 16:55 38.01833 -2.80992 29382 ft 427 kts 224°
2026-05-05 16:55 37.99816 -2.83688 28982 ft 425 kts 224°
2026-05-05 16:55 37.97794 -2.86390 28577 ft 424 kts 224°
2026-05-05 16:56 37.95768 -2.89100 28173 ft 422 kts 224°
2026-05-05 16:56 37.93739 -2.91784 27767 ft 421 kts 223°
2026-05-05 16:56 37.91721 -2.94441 27364 ft 420 kts 223°
2026-05-05 16:56 37.89725 -2.97068 26965 ft 419 kts 223°
2026-05-05 16:57 37.87707 -2.99724 26572 ft 418 kts 223°
2026-05-05 16:57 37.85705 -3.02361 26178 ft 417 kts 223°
2026-05-05 16:57 37.83679 -3.05029 25780 ft 417 kts 223°
2026-05-05 16:57 37.81673 -3.07671 25384 ft 416 kts 223°
2026-05-05 16:58 37.79699 -3.10272 24995 ft 415 kts 223°
2026-05-05 16:58 37.77684 -3.12928 24529 ft 416 kts 223°
2026-05-05 16:58 37.75688 -3.15559 24121 ft 416 kts 223°
2026-05-05 16:58 37.73699 -3.18182 23704 ft 416 kts 223°
2026-05-05 16:59 37.71688 -3.20809 23284 ft 415 kts 223°
2026-05-05 16:59 37.69710 -3.23383 22872 ft 415 kts 223°
2026-05-05 16:59 37.67707 -3.25988 22452 ft 414 kts 223°
2026-05-05 16:59 37.65703 -3.28593 22029 ft 413 kts 223°
2026-05-05 17:00 37.63721 -3.31172 21610 ft 412 kts 224°
2026-05-05 17:00 37.61730 -3.33762 21189 ft 411 kts 224°
2026-05-05 17:00 37.59744 -3.36345 20767 ft 410 kts 224°
2026-05-05 17:00 37.57768 -3.38917 20345 ft 409 kts 224°
2026-05-05 17:01 37.55809 -3.41467 19926 ft 408 kts 224°
2026-05-05 17:01 37.53846 -3.44024 19504 ft 405 kts 224°
2026-05-05 17:01 37.51900 -3.46559 19078 ft 400 kts 224°
2026-05-05 17:01 37.49993 -3.49043 18699 ft 394 kts 224°
2026-05-05 17:02 37.48088 -3.51526 18311 ft 388 kts 224°
2026-05-05 17:02 37.46252 -3.53921 17931 ft 383 kts 224°
2026-05-05 17:02 37.44423 -3.56305 17548 ft 378 kts 224°
2026-05-05 17:02 37.42610 -3.58670 17165 ft 373 kts 225°
2026-05-05 17:03 37.40828 -3.60963 16784 ft 368 kts 222°
2026-05-05 17:03 37.38863 -3.63030 16400 ft 363 kts 215°
2026-05-05 17:03 37.36776 -3.64723 16033 ft 358 kts 208°
2026-05-05 17:03 37.34543 -3.66111 15678 ft 354 kts 204°
2026-05-05 17:04 37.32343 -3.67425 15324 ft 350 kts 205°
2026-05-05 17:04 37.30166 -3.68744 14968 ft 347 kts 205°
2026-05-05 17:04 37.28014 -3.70057 14613 ft 344 kts 205°
2026-05-05 17:04 37.25875 -3.71368 14257 ft 341 kts 205°
2026-05-05 17:05 37.23782 -3.72654 13907 ft 338 kts 205°
2026-05-05 17:05 37.21679 -3.73947 13552 ft 336 kts 205°
2026-05-05 17:05 37.19592 -3.75232 13199 ft 334 kts 205°
2026-05-05 17:05 37.17533 -3.76499 12852 ft 331 kts 205°
2026-05-05 17:06 37.15472 -3.77769 12535 ft 324 kts 206°
2026-05-05 17:06 37.13493 -3.78991 12223 ft 318 kts 206°
2026-05-05 17:06 37.11527 -3.80202 11909 ft 312 kts 206°
2026-05-05 17:06 37.09628 -3.81372 11616 ft 306 kts 206°
2026-05-05 17:07 37.07758 -3.82522 11331 ft 299 kts 206°
2026-05-05 17:07 37.05923 -3.83651 11045 ft 286 kts 207°
2026-05-05 17:07 37.04201 -3.84713 10791 ft 279 kts 207°
2026-05-05 17:07 37.02522 -3.85748 10541 ft 274 kts 207°
2026-05-05 17:08 37.00866 -3.86768 10307 ft 268 kts 208°
2026-05-05 17:08 36.99217 -3.87785 10067 ft 263 kts 208°
2026-05-05 17:08 36.97613 -3.88775 9826 ft 258 kts 209°
2026-05-05 17:08 36.96025 -3.89756 9590 ft 253 kts 209°
2026-05-05 17:09 36.94464 -3.90719 9351 ft 249 kts 209°
2026-05-05 17:09 36.92912 -3.91673 9099 ft 246 kts 210°
2026-05-05 17:09 36.91405 -3.92608 8869 ft 242 kts 209°
2026-05-05 17:09 36.89908 -3.93534 8695 ft 234 kts 209°
2026-05-05 17:10 36.88468 -3.94329 8625 ft 231 kts 206°
2026-05-05 17:10 36.86923 -3.95108 8448 ft 242 kts 205°
2026-05-05 17:10 36.85348 -3.95916 8242 ft 248 kts 205°
2026-05-05 17:10 36.83731 -3.96739 8022 ft 254 kts 205°
2026-05-05 17:11 36.82085 -3.97565 7810 ft 257 kts 206°
2026-05-05 17:11 36.80570 -3.98327 7607 ft 258 kts 205°
2026-05-05 17:11 36.78985 -3.99202 7385 ft 256 kts 207°
2026-05-05 17:11 36.77371 -4.00114 7171 ft 251 kts 207°
2026-05-05 17:12 36.75824 -4.00984 6904 ft 239 kts 207°
2026-05-05 17:12 36.74347 -4.01818 6652 ft 227 kts 207°
2026-05-05 17:12 36.72966 -4.02629 6394 ft 218 kts 210°
2026-05-05 17:12 36.71603 -4.03467 6141 ft 221 kts 209°
2026-05-05 17:13 36.70187 -4.04345 5962 ft 230 kts 210°
2026-05-05 17:13 36.68753 -4.05241 5758 ft 234 kts 209°
2026-05-05 17:13 36.67306 -4.06159 5547 ft 232 kts 209°
2026-05-05 17:13 36.65892 -4.07061 5308 ft 229 kts 208°
2026-05-05 17:14 36.64814 -4.07754 5130 ft 226 kts 209°
2026-05-05 17:14 36.63528 -4.08590 4911 ft 222 kts 210°
2026-05-05 17:14 36.62173 -4.09458 4659 ft 219 kts 209°
2026-05-05 17:14 36.60822 -4.10321 4427 ft 219 kts 209°
2026-05-05 17:15 36.59455 -4.11200 4211 ft 219 kts 209°
2026-05-05 17:15 36.58100 -4.12076 3985 ft 221 kts 209°
2026-05-05 17:15 36.56736 -4.12965 3773 ft 222 kts 209°
2026-05-05 17:15 36.55375 -4.13854 3550 ft 222 kts 209°
2026-05-05 17:16 36.54009 -4.14753 3319 ft 222 kts 210°
2026-05-05 17:16 36.52665 -4.15643 3126 ft 221 kts 209°
2026-05-05 17:16 36.51327 -4.16542 3103 ft 214 kts 209°
2026-05-05 17:16 36.50035 -4.17418 3098 ft 207 kts 212°
2026-05-05 17:17 36.49186 -4.18757 3082 ft 200 kts 257°
2026-05-05 17:17 36.49243 -4.20446 3148 ft 194 kts 282°
2026-05-05 17:17 36.49526 -4.22089 3118 ft 196 kts 282°
2026-05-05 17:17 36.49809 -4.23759 3113 ft 197 kts 284°
2026-05-05 17:18 36.50110 -4.25429 3103 ft 198 kts 289°
2026-05-05 17:18 36.50903 -4.26779 3143 ft 196 kts 312°
2026-05-05 17:18 36.51831 -4.28073 3133 ft 204 kts 313°
2026-05-05 17:18 36.52784 -4.29389 3120 ft 206 kts 311°
2026-05-05 17:19 36.53744 -4.30739 3113 ft 208 kts 312°
2026-05-05 17:19 36.54688 -4.32043 3145 ft 195 kts 311°
2026-05-05 17:19 36.55564 -4.33262 3073 ft 180 kts 311°
2026-05-05 17:19 36.56356 -4.34369 3019 ft 171 kts 312°
2026-05-05 17:20 36.57159 -4.35485 2777 ft 170 kts 312°
2026-05-05 17:20 36.57919 -4.36542 2541 ft 160 kts 312°
2026-05-05 17:20 36.58642 -4.37548 2308 ft 150 kts 310°
2026-05-05 17:20 36.59312 -4.38490 2094 ft 143 kts 313°
2026-05-05 17:21 36.59952 -4.39378 1957 ft 136 kts 312°
2026-05-05 17:21 36.60525 -4.40174 1842 ft 144 kts 312°
2026-05-05 17:21 36.61219 -4.41141 1674 ft 155 kts 312°
2026-05-05 17:22 36.62630 -4.43167 1360 ft 150 kts 309°
2026-05-05 17:22 36.63302 -4.44157 1169 ft 149 kts 311°
2026-05-05 17:22 36.63999 -4.45115 968 ft 148 kts 313°
2026-05-05 17:22 36.64703 -4.46024 726 ft 145 kts 312°
2026-05-05 17:23 36.65380 -4.46964 396 ft 144 kts 310°
2026-05-05 17:23 36.66027 -4.47879 185 ft 141 kts 312°
2026-05-05 17:23 36.66674 -4.48770 67 ft 134 kts 311°
2026-05-05 17:23 36.67233 -4.49554 54 ft 101 kts 312°
2026-05-05 17:24 36.67565 -4.50016 54 ft 39 kts 312°
2026-05-05 17:24 36.67695 -4.50160 54 ft 15 kts 328°
2026-05-05 17:24 36.67784 -4.50213 54 ft 12 kts 342°
2026-05-05 17:24 36.67856 -4.50231 54 ft 9 kts 20°
2026-05-05 17:25 36.67870 -4.50159 54 ft 13 kts 117°
2026-05-05 17:25 36.67831 -4.50102 54 ft 12 kts 133°
2026-05-05 17:25 36.67767 -4.50013 54 ft 11 kts 127°
2026-05-05 17:25 36.67785 -4.49919 54 ft 10 kts 72°
2026-05-05 17:26 36.67801 -4.49840 54 ft 8 kts 84°
2026-05-05 17:26 36.67775 -4.49770 54 ft 8 kts 132°
2026-05-05 17:26 36.67739 -4.49720 54 ft 7 kts 131°
2026-05-05 17:26 36.67719 -4.49675 54 ft 4 kts 81°
2026-05-05 17:27 36.67736 -4.49648 54 ft 5 kts 46°
2026-05-05 17:27 36.67759 -4.49620 54 ft 2 kts 43°
2026-05-05 17:27 36.67763 -4.49617 54 ft 0 kts 42°